Weather History for Howell, MI

Change the Weather History Date:

Wednesday, March 6, 2013

  Actual Average Record
Temperature  
Mean Temperature 30 °F -  
Max Temperature 35 °F 36 °F 77 °F (1999)
Min Temperature 26 °F 20 °F 1 °F (2014)
Degree Days  
Heating Degree Days 34    
Moisture  
Dew Point 25 °F    
Average Humidity 77    
Maximum Humidity 82    
Minimum Humidity 69    
Precipitation  
Precipitation 0.00 in - - ()
Sea Level Pressure  
Sea Level Pressure 30.05 in    
Wind  
Wind Speed 6 mph (North)    
Max Wind Speed 13 mph    
Max Gust Speed 20 mph    
Visibility 10 miles    
Events      
Averages and records for this station are not official NWS values.
T = Trace of Precipitation, MM = Missing Value Source: NWS Daily Summary

Daily Weather History Graph

Daily Weather History Graph

Search for Another Location

Airport:

Trip Planner

Search our weather history database for the weather conditions in past years. The results will help you decide how hot, cold, wet, or windy it might be!

Date:

Astronomy

Mar. 06, 2013 Rise Set
Actual Time 7:02 AM EST 6:31 PM EST
Civil Twilight 6:34 AM EST 7:00 PM EST
Nautical Twilight 6:02 AM EST 7:32 PM EST
Astronomical Twilight 5:29 AM EST 8:05 PM EST
Moon 3:16 AM EST (3/6) 1:07 PM EST (3/6)
Length of Visible Light 12h 25m
Length of Day
11h 29m
Waning Crescent, 30% of the Moon is Illuminated
Mar 6
Waning Crescent
Mar 11
New
Mar 19
First Quarter
Mar 27
Full
Apr 3
Last Quarter

Hourly Weather History & Observations

Time (EST) Temp. Windchill Dew Point Humidity Pressure Visibility Wind Dir Wind Speed Gust Speed Precip Events Conditions
12:14 AM 27.5 °F 18.6 °F 21.9 °F 80% 29.85 in 10.0 mi NNE 9.2 mph 18.4 mph N/A   Mostly Cloudy
12:34 AM 27.1 °F 19.7 °F 21.7 °F 80% 29.85 in 10.0 mi NNE 6.9 mph 18.4 mph N/A   Mostly Cloudy
12:55 AM 26.6 °F 16.8 °F 21.7 °F 82% 29.85 in 10.0 mi NNE 10.4 mph - N/A   Mostly Cloudy
1:14 AM 26.6 °F 18.2 °F 21.9 °F 82% 29.85 in 10.0 mi NNE 8.1 mph 19.6 mph N/A   Mostly Cloudy
1:34 AM 27.0 °F 19.5 °F 21.9 °F 81% 29.86 in 10.0 mi NNE 6.9 mph 17.3 mph N/A   Overcast
1:54 AM 27.1 °F 18.2 °F 22.1 °F 81% 29.87 in 10.0 mi NNE 9.2 mph - N/A   Overcast
2:14 AM 27.3 °F 18.4 °F 22.1 °F 81% 29.87 in 10.0 mi NNE 9.2 mph 17.3 mph N/A   Overcast
2:35 AM 27.5 °F 19.3 °F 22.6 °F 82% 29.88 in 10.0 mi NE 8.1 mph 16.1 mph N/A   Overcast
2:54 AM 27.9 °F 19.8 °F 22.8 °F 81% 29.88 in 10.0 mi NNE 8.1 mph 18.4 mph N/A   Overcast
3:14 AM 28.0 °F 19.3 °F 22.8 °F 81% 29.88 in 10.0 mi NNE 9.2 mph 16.1 mph N/A   Overcast
3:35 AM 28.4 °F 19.7 °F 23.0 °F 80% 29.88 in 10.0 mi NNE 9.2 mph - N/A   Overcast
3:54 AM 28.4 °F 20.4 °F 23.0 °F 80% 29.88 in 10.0 mi NNE 8.1 mph - N/A   Overcast
4:14 AM 28.6 °F 21.5 °F 23.0 °F 80% 29.89 in 10.0 mi NNE 6.9 mph - N/A   Overcast
4:35 AM 28.8 °F 21.7 °F 23.0 °F 79% 29.90 in 10.0 mi NNE 6.9 mph - N/A   Overcast
4:54 AM 28.9 °F 21.9 °F 23.0 °F 78% 29.91 in 10.0 mi NNE 6.9 mph - N/A   Overcast
5:14 AM 29.1 °F 23.0 °F 23.2 °F 78% 29.92 in 10.0 mi North 5.8 mph - N/A   Overcast
5:35 AM 29.3 °F 23.2 °F 23.4 °F 78% 29.93 in 10.0 mi NNE 5.8 mph - N/A   Overcast
5:54 AM 29.3 °F 22.3 °F 23.4 °F 78% 29.95 in 10.0 mi NNE 6.9 mph - N/A   Overcast
6:15 AM 29.3 °F 22.3 °F 23.5 °F 79% 29.95 in 10.0 mi NNE 6.9 mph - N/A   Overcast
6:34 AM 29.5 °F 22.5 °F 23.5 °F 79% 29.97 in 10.0 mi NNE 6.9 mph - N/A   Overcast
6:54 AM 29.7 °F 23.7 °F 23.7 °F 79% 29.98 in 10.0 mi NNE 5.8 mph - N/A   Overcast
7:15 AM 29.7 °F 22.8 °F 23.9 °F 79% 29.99 in 10.0 mi North 6.9 mph - N/A   Overcast
7:34 AM 29.7 °F 26.1 °F 23.9 °F 79% 30.00 in 10.0 mi NNE 3.5 mph - N/A   Overcast
7:54 AM 29.7 °F 24.7 °F 23.9 °F 79% 30.02 in 10.0 mi North 4.6 mph - N/A   Overcast
8:15 AM 29.7 °F 22.8 °F 24.1 °F 80% 30.03 in 10.0 mi North 6.9 mph - N/A   Overcast
8:34 AM 29.3 °F 22.3 °F 23.9 °F 80% 30.04 in 7.0 mi North 6.9 mph - N/A   Overcast
8:54 AM 29.3 °F 22.3 °F 23.7 °F 80% 30.05 in 10.0 mi North 6.9 mph - N/A   Overcast
9:15 AM 29.8 °F 23.0 °F 24.1 °F 79% 30.06 in 10.0 mi North 6.9 mph - N/A   Overcast
9:34 AM 30.2 °F 24.3 °F 24.4 °F 79% 30.06 in 10.0 mi North 5.8 mph - N/A   Overcast
9:54 AM 30.7 °F 27.3 °F 24.6 °F 78% 30.07 in 10.0 mi NNE 3.5 mph - N/A   Overcast
10:15 AM 31.3 °F 25.6 °F 24.8 °F 77% 30.08 in 10.0 mi NNE 5.8 mph - N/A   Overcast
10:34 AM 31.6 °F 26.0 °F 24.8 °F 76% 30.08 in 10.0 mi North 5.8 mph - N/A   Overcast
10:54 AM 32.0 °F 27.5 °F 24.8 °F 75% 30.08 in 10.0 mi North 4.6 mph - N/A   Overcast
11:15 AM 32.7 °F 27.3 °F 25.7 °F 75% 30.07 in 10.0 mi NNE 5.8 mph - N/A   Overcast
11:34 AM 32.7 °F 27.3 °F 25.3 °F 74% 30.08 in 10.0 mi NNE 5.8 mph - N/A   Mostly Cloudy
11:55 AM 34.7 °F 29.6 °F 26.6 °F 72% 30.09 in 10.0 mi NNE 5.8 mph - N/A   Mostly Cloudy
12:14 PM 34.7 °F 30.6 °F 25.5 °F 69% 30.10 in 10.0 mi NNW 4.6 mph - N/A   Mostly Cloudy
12:34 PM 34.9 °F 29.9 °F 25.7 °F 69% 30.11 in 10.0 mi NW 5.8 mph - N/A   Overcast
12:55 PM 34.7 °F 27.5 °F 26.1 °F 71% 30.12 in 10.0 mi WNW 9.2 mph - N/A   Overcast
1:14 PM 34.3 °F 28.4 °F 26.4 °F 73% 30.11 in 10.0 mi NW 6.9 mph - N/A   Overcast
1:34 PM 34.7 °F 28.8 °F 26.2 °F 71% 30.11 in 10.0 mi NW 6.9 mph - N/A   Overcast
1:55 PM 34.3 °F 25.5 °F 26.6 °F 73% 30.11 in 10.0 mi NNW 12.7 mph - N/A   Overcast
2:14 PM 34.7 °F 28.1 °F 26.2 °F 71% 30.11 in 10.0 mi NNW 8.1 mph - N/A   Overcast
2:34 PM 35.2 °F 29.5 °F 26.2 °F 70% 30.10 in 10.0 mi North 6.9 mph - N/A   Overcast
2:55 PM 35.2 °F 30.3 °F 26.2 °F 70% 30.11 in 10.0 mi NW 5.8 mph - N/A   Overcast
3:14 PM 35.4 °F 31.5 °F 26.2 °F 69% 30.11 in 10.0 mi North 4.6 mph - N/A   Overcast
3:34 PM 35.2 °F 31.2 °F 26.1 °F 69% 30.11 in 10.0 mi NNW 4.6 mph - N/A   Overcast
4:14 PM 35.1 °F 29.3 °F 26.2 °F 70% 30.13 in 10.0 mi WNW 6.9 mph - N/A   Overcast
4:35 PM 34.9 °F 28.3 °F 26.8 °F 72% 30.13 in 10.0 mi NW 8.1 mph - N/A   Overcast
4:54 PM 34.7 °F 28.8 °F 26.6 °F 72% 30.14 in 10.0 mi WNW 6.9 mph - N/A   Overcast
5:14 PM 34.7 °F 30.6 °F 26.4 °F 72% 30.15 in 10.0 mi NW 4.6 mph - N/A   Overcast
5:35 PM 34.3 °F 30.2 °F 26.8 °F 74% 30.15 in 10.0 mi WNW 4.6 mph - N/A   Overcast
5:54 PM 34.2 °F 30.0 °F 26.6 °F 74% 30.15 in 10.0 mi NW 4.6 mph - N/A   Overcast
6:14 PM 34.0 °F 31.0 °F 26.8 °F 75% 30.15 in 10.0 mi NW 3.5 mph - N/A   Overcast
6:34 PM 33.8 °F 30.8 °F 26.6 °F 75% 30.16 in 10.0 mi WNW 3.5 mph - N/A   Overcast
6:54 PM 33.8 °F 30.8 °F 27.0 °F 76% 30.17 in 10.0 mi NW 3.5 mph - N/A   Overcast
7:15 PM 33.8 °F - 27.0 °F 76% 30.17 in 10.0 mi Calm Calm - N/A   Overcast
7:34 PM 33.8 °F - 26.6 °F 75% 30.17 in 10.0 mi Calm Calm - N/A   Overcast
7:54 PM 33.6 °F - 26.4 °F 75% 30.17 in 10.0 mi Calm Calm - N/A   Overcast
8:15 PM 33.8 °F - 27.0 °F 76% 30.17 in 10.0 mi Calm Calm - N/A   Overcast
8:34 PM 33.8 °F - 27.0 °F 76% 30.17 in 10.0 mi Calm Calm - N/A   Overcast
8:54 PM 33.3 °F - 27.3 °F 79% 30.18 in 10.0 mi Calm Calm - N/A   Overcast
9:34 PM 33.3 °F - 27.3 °F 79% 30.18 in 10.0 mi Calm Calm - N/A   Overcast
9:54 PM 32.5 °F - 27.1 °F 80% 30.18 in 10.0 mi Calm Calm - N/A   Overcast
10:14 PM 32.9 °F - 27.5 °F 81% 30.19 in 10.0 mi Calm Calm - N/A   Overcast
10:34 PM 32.7 °F - 27.3 °F 81% 30.19 in 10.0 mi Calm Calm - N/A   Overcast
10:55 PM 32.9 °F - 27.5 °F 81% 30.19 in 10.0 mi Calm Calm - N/A   Overcast
11:14 PM 32.9 °F - 27.5 °F 81% 30.19 in 10.0 mi Calm Calm - N/A   Overcast
11:34 PM 32.5 °F - 27.3 °F 81% 30.19 in 10.0 mi Calm Calm - N/A   Overcast
11:55 PM 32.4 °F - 27.5 °F 82% 30.19 in 7.0 mi Calm Calm - N/A   Overcast